User: anonymous   Login
Location: Gorze? G�rny
(49.8500°N, 19.5000°E)
Time: 00:29:08
(UTC+00:00)
Language:

SL-24 R/B - RUBIN 2 - Orbit

View from above orbital plane
View from above orbital plane
View from above satellite
View from above satellite

Ground track
Ground track

The orbit data is extracted from the following two-line orbital elements,

1 27610U 02058F   21213.50128115 -.00000095  00000-0  91019-5 0  9993
2 27610  64.5569 187.2562 0294552 181.3319 314.1832 14.28208773970490
Epoch (UTC): 01 August 2021 12:01:50
Eccentricity: 0.0294552
inclination: 64.5569°
perigee height: 586 km
apogee height: 1009 km
right ascension of ascending node: 187.2562°
argument of perigee: 181.3319°
revolutions per day: 14.28208773
mean anomaly at epoch: 314.1832°
orbit number at epoch: 97049

The dashed part of the orbit path shows where the satellite is in the earth's shadow,  

DLR